Time,TemperatureF,DewpointF,PressureIn,WindDirection,WindDirectionDegrees,WindSpeedMPH,WindSpeedGustMPH,Humidity,HourlyPrecipIn,Conditions,Clouds,dailyrainin,SolarRadiationWatts/m^2,SoftwareType,DateUTC
2013-01-06 13:33:00,40.0,35.0,-100.00,NW,314,3.0,4.0,82,0.00,,,0.03,309.000000,,2013-01-06 21:33:00,
2013-01-06 13:43:00,40.0,35.0,-100.00,NW,314,3.0,4.0,82,0.00,,,0.03,309.000000,,2013-01-06 21:43:00,
2013-01-06 13:53:00,40.0,35.0,-100.00,NW,314,3.0,4.0,82,0.00,,,0.03,309.000000,,2013-01-06 21:53:00,
2013-01-06 14:02:00,40.0,35.0,-100.00,NW,314,3.0,4.0,82,0.00,,,0.03,309.000000,,2013-01-06 22:02:00,
2013-01-06 14:12:00,40.0,35.0,-100.00,NW,314,3.0,4.0,82,0.00,,,0.03,309.000000,,2013-01-06 22:12:00,
2013-01-06 14:33:00,35.0,35.0,-100.00,WNW,300,4.0,9.0,100,0.00,,,0.01,167.000000,,2013-01-06 22:33:00,
2013-01-06 14:43:00,35.0,35.0,-100.00,WNW,300,4.0,9.0,100,0.00,,,0.01,167.000000,,2013-01-06 22:43:00,
2013-01-06 14:52:00,35.0,35.0,-100.00,WNW,300,4.0,9.0,100,0.00,,,0.01,167.000000,,2013-01-06 22:52:00,
2013-01-06 15:02:00,35.0,35.0,-100.00,WNW,300,4.0,9.0,100,0.00,,,0.01,167.000000,,2013-01-06 23:02:00,
2013-01-06 15:12:00,35.0,35.0,-100.00,WNW,300,4.0,9.0,100,0.00,,,0.01,167.000000,,2013-01-06 23:12:00,
2013-01-06 15:33:00,34.0,34.0,-100.00,NW,325,5.0,13.0,100,0.00,,,0.01,79.000000,,2013-01-06 23:33:00,
2013-01-06 15:43:00,34.0,34.0,-100.00,NW,325,5.0,13.0,100,0.00,,,0.01,79.000000,,2013-01-06 23:43:00,
2013-01-06 15:53:00,34.0,34.0,-100.00,NW,325,5.0,13.0,100,0.00,,,0.01,79.000000,,2013-01-06 23:53:00,
2013-01-06 16:02:00,34.0,34.0,-100.00,NW,325,5.0,13.0,100,0.00,,,0.01,79.000000,,2013-01-07 00:02:00,
2013-01-06 16:12:00,34.0,34.0,-100.00,NW,325,5.0,13.0,100,0.00,,,0.01,79.000000,,2013-01-07 00:12:00,
2013-01-06 16:33:00,33.0,33.0,-100.00,NW,311,4.0,11.0,100,0.00,,,0.00,30.000000,,2013-01-07 00:33:00,
2013-01-06 16:43:00,33.0,33.0,-100.00,NW,311,4.0,11.0,100,0.00,,,0.00,30.000000,,2013-01-07 00:43:00,
2013-01-06 16:53:00,33.0,33.0,-100.00,NW,311,4.0,11.0,100,0.00,,,0.00,30.000000,,2013-01-07 00:53:00,
2013-01-06 17:02:00,33.0,33.0,-100.00,NW,311,4.0,11.0,100,0.00,,,0.00,30.000000,,2013-01-07 01:02:00,
2013-01-06 17:12:00,33.0,33.0,-100.00,NW,311,4.0,11.0,100,0.00,,,0.00,30.000000,,2013-01-07 01:12:00,
2013-01-06 17:43:00,33.0,33.0,-100.00,West,280,5.0,8.0,100,0.00,,,0.00,2.000000,,2013-01-07 01:43:00,
2013-01-06 17:53:00,33.0,33.0,-100.00,West,280,5.0,8.0,100,0.00,,,0.00,2.000000,,2013-01-07 01:53:00,
2013-01-06 18:02:00,33.0,33.0,-100.00,West,280,5.0,8.0,100,0.00,,,0.00,2.000000,,2013-01-07 02:02:00,
2013-01-06 18:12:00,33.0,33.0,-100.00,West,280,5.0,8.0,100,0.00,,,0.00,2.000000,,2013-01-07 02:12:00,
2013-01-06 18:43:00,33.0,33.0,-100.00,WNW,297,5.0,10.0,100,0.00,,,0.00,0.000000,,2013-01-07 02:43:00,
2013-01-06 18:53:00,33.0,33.0,-100.00,WNW,297,5.0,10.0,100,0.00,,,0.00,0.000000,,2013-01-07 02:53:00,
2013-01-06 19:02:00,33.0,33.0,-100.00,WNW,297,5.0,10.0,100,0.00,,,0.00,0.000000,,2013-01-07 03:02:00,
2013-01-06 19:12:00,33.0,33.0,-100.00,WNW,297,5.0,10.0,100,0.00,,,0.00,0.000000,,2013-01-07 03:12:00,
2013-01-06 19:33:00,33.0,33.0,-100.00,SSW,195,1.0,7.0,100,0.00,,,0.00,0.000000,,2013-01-07 03:33:00,
2013-01-06 19:43:00,33.0,33.0,-100.00,SSW,195,1.0,7.0,100,0.00,,,0.00,0.000000,,2013-01-07 03:43:00,
2013-01-06 19:53:00,33.0,33.0,-100.00,SSW,195,1.0,7.0,100,0.00,,,0.00,0.000000,,2013-01-07 03:53:00,
2013-01-06 20:02:00,33.0,33.0,-100.00,SSW,195,1.0,7.0,100,0.00,,,0.00,0.000000,,2013-01-07 04:02:00,
2013-01-06 20:12:00,33.0,33.0,-100.00,SSW,195,1.0,7.0,100,0.00,,,0.00,0.000000,,2013-01-07 04:12:00,
2013-01-06 20:33:00,33.0,33.0,-100.00,WNW,296,3.0,7.0,100,0.00,,,0.00,0.000000,,2013-01-07 04:33:00,
2013-01-06 20:42:00,33.0,33.0,-100.00,WNW,296,3.0,7.0,100,0.00,,,0.00,0.000000,,2013-01-07 04:42:00,
2013-01-06 20:52:00,33.0,33.0,-100.00,WNW,296,3.0,7.0,100,0.00,,,0.00,0.000000,,2013-01-07 04:52:00,
2013-01-06 21:02:00,33.0,33.0,-100.00,WNW,296,3.0,7.0,100,0.00,,,0.00,0.000000,,2013-01-07 05:02:00,
2013-01-06 21:12:00,33.0,33.0,-100.00,WNW,296,3.0,7.0,100,0.00,,,0.00,0.000000,,2013-01-07 05:12:00,
2013-01-06 21:33:00,33.0,33.0,-100.00,South,174,3.0,6.0,100,0.00,,,0.00,0.000000,,2013-01-07 05:33:00,
2013-01-06 21:43:00,33.0,33.0,-100.00,South,174,3.0,6.0,100,0.00,,,0.00,0.000000,,2013-01-07 05:43:00,
2013-01-06 21:53:00,33.0,33.0,-100.00,South,174,3.0,6.0,100,0.00,,,0.00,0.000000,,2013-01-07 05:53:00,
2013-01-06 22:02:00,33.0,33.0,-100.00,South,174,3.0,6.0,100,0.00,,,0.00,0.000000,,2013-01-07 06:02:00,
2013-01-06 22:12:00,33.0,33.0,-100.00,South,174,3.0,6.0,100,0.00,,,0.00,0.000000,,2013-01-07 06:12:00,
2013-01-06 22:42:00,33.0,33.0,-100.00,WNW,289,4.0,5.0,100,0.00,,,0.00,0.000000,,2013-01-07 06:42:00,
2013-01-06 22:52:00,33.0,33.0,-100.00,WNW,289,4.0,5.0,100,0.00,,,0.00,0.000000,,2013-01-07 06:52:00,
2013-01-06 23:02:00,33.0,33.0,-100.00,WNW,289,4.0,5.0,100,0.00,,,0.00,0.000000,,2013-01-07 07:02:00,
2013-01-06 23:11:00,33.0,33.0,-100.00,WNW,289,4.0,5.0,100,0.00,,,0.00,0.000000,,2013-01-07 07:11:00,
2013-01-06 23:33:00,33.0,33.0,-100.00,NW,317,3.0,5.0,100,0.00,,,0.00,0.000000,,2013-01-07 07:33:00,
2013-01-06 23:42:00,33.0,33.0,-100.00,NW,317,3.0,5.0,100,0.00,,,0.00,0.000000,,2013-01-07 07:42:00,
2013-01-06 23:52:00,33.0,33.0,-100.00,NW,317,3.0,5.0,100,0.00,,,0.00,0.000000,,2013-01-07 07:52:00,